EW6393 Weather Reports


Display with metric or nautical units.
time (UTC)temp
F
wind
direction
speed
MPH
gust
MPH
rain 1hr
in
rain 24hr
in
rain mn
in
humidity
%
barometer
mb
20260903183621 81 216 2.0 10.0 0.00 0.00 0.00 17 1015.2
20260903183129 80 230 3.0 10.0 0.00 0.00 0.00 17 1015.4
20260903182630 80 196 3.0 14.0 0.00 0.00 0.00 16 1015.4
20260903182118 80 169 2.0 14.0 0.00 0.00 0.00 16 1015.5
20260903181620 79 203 2.0 17.0 0.00 0.00 0.00 17 1015.5
20260903181122 78 120 5.0 17.0 0.00 0.00 0.00 16 1015.6
20260903180629 78 151 5.0 12.0 0.00 0.00 0.00 16 1015.8
20260903180127 78 145 6.0 14.0 0.00 0.00 0.00 16 1015.8
20260903175635 78 181 9.0 14.0 0.00 0.00 0.00 15 1015.7
20260903175115 77 164 8.0 16.0 0.00 0.00 0.00 16 1015.8
20260903174644 78 143 8.0 16.0 0.00 0.00 0.00 16 1015.7
20260903174152 78 160 5.0 15.0 0.00 0.00 0.00 16 1015.7
20260903173613 78 153 4.0 11.0 0.00 0.00 0.00 16 1015.8
20260903173113 77 233 7.0 15.0 0.00 0.00 0.00 16 1015.8
20260903172615 77 165 6.0 13.0 0.00 0.00 0.00 17 1015.7
20260903172124 77 193 4.0 12.0 0.00 0.00 0.00 17 1015.9
20260903171653 76 134 4.0 11.0 0.00 0.00 0.00 16 1015.9
20260903171114 76 220 6.0 12.0 0.00 0.00 0.00 16 1016.0
20260903170613 77 148 7.0 12.0 0.00 0.00 0.00 16 1016.0
20260903170120 77 115 4.0 11.0 0.00 0.00 0.00 17 1016.1
20260903165623 77 138 4.0 11.0 0.00 0.00 0.00 17 1016.0
20260903165124 76 211 5.0 12.0 0.00 0.00 0.00 17 1015.9
20260903164633 77 223 4.0 13.0 0.00 0.00 0.00 16 1016.1
20260903164114 76 160 6.0 13.0 0.00 0.00 0.00 16 1016.0
20260903163622 76 162 2.0 12.0 0.00 0.00 0.00 17 1016.0
20260903163124 76 267 2.0 6.0 0.00 0.00 0.00 18 1016.0
20260903162626 75 153 3.0 6.0 0.00 0.00 0.00 19 1016.0
20260903162134 75 184 2.0 4.0 0.00 0.00 0.00 21 1016.1
20260903161615 74 279 0.0 4.0 0.00 0.00 0.00 22 1016.0
20260903161117 74 226 1.0 6.0 0.00 0.00 0.00 24 1016.0
20260903160625 73 138 3.0 6.0 0.00 0.00 0.00 21 1016.0
20260903160126 73 287 1.0 6.0 0.00 0.00 0.00 20 1016.0
20260903155627 73 286 1.0 2.0 0.00 0.00 0.00 22 1016.0
20260903155136 73 283 0.0 1.0 0.00 0.00 0.00 22 1015.9
20260903154618 73 310 0.0 1.0 0.00 0.00 0.00 22 1015.9
20260903154146 73 118 0.0 1.0 0.00 0.00 0.00 20 1015.9
20260903153626 72 150 0.0 1.0 0.00 0.00 0.00 21 1016.0
20260903153133 71 124 0.0 1.0 0.00 0.00 0.00 23 1016.0
20260903152612 71 278 0.0 2.0 0.00 0.00 0.00 22 1016.2
20260903152120 71 307 0.0 1.0 0.00 0.00 0.00 22 1016.2
20260903151622 71 69 0.0 1.0 0.00 0.00 0.00 24 1016.3
20260903151151 70 69 0.0 1.0 0.00 0.00 0.00 25 1016.3
20260903150631 69 289 0.0 3.0 0.00 0.00 0.00 29 1016.3
20260903150112 69 29 0.0 3.0 0.00 0.00 0.00 30 1016.2
20260903145619 68 83 0.0 1.0 0.00 0.00 0.00 31 1016.2
20260903145121 67 84 0.0 1.0 0.00 0.00 0.00 30 1016.2
20260903144624 67 84 0.0 1.0 0.00 0.00 0.00 31 1016.2
20260903144133 66 84 0.0 0.0 0.00 0.00 0.00 30 1016.1
20260903143615 64 84 0.0 0.0 0.00 0.00 0.00 31 1016.1
20260903143114 62 84 0.0 1.0 0.00 0.00 0.00 32 1016.0
20260903142643 61 84 0.0 2.0 0.00 0.00 0.00 35 1016.0
20260903142123 60 108 0.0 1.0 0.00 0.00 0.00 34 1016.1
20260903141632 59 68 1.0 1.0 0.00 0.00 0.00 35 1016.1
20260903141115 58 68 1.0 1.0 0.00 0.00 0.00 35 1016.1
20260903140616 58 68 1.0 1.0 0.00 0.00 0.00 38 1016.1
20260903140124 58 72 0.0 1.0 0.00 0.00 0.00 41 1016.0
20260903135627 58 74 0.0 1.0 0.00 0.00 0.00 39 1016.0
20260903135134 58 74 0.0 1.0 0.00 0.00 0.00 38 1016.0
20260903134617 58 120 1.0 2.0 0.00 0.00 0.00 39 1015.9
20260903134138 58 97 1.0 2.0 0.00 0.00 0.00 37 1015.9
20260903133626 58 71 1.0 2.0 0.00 0.00 0.00 37 1015.7
20260903133134 59 63 0.0 2.0 0.00 0.00 0.00 35 1015.7
20260903132616 59 304 0.0 1.0 0.00 0.00 0.00 35 1015.6
20260903132117 60 81 1.0 2.0 0.00 0.00 0.00 32 1015.6
20260903131619 60 92 0.0 2.0 0.00 0.00 0.00 32 1015.4
20260903131127 59 94 1.0 2.0 0.00 0.00 0.00 31 1015.5
20260903130628 59 60 2.0 2.0 0.00 0.00 0.00 33 1015.3
20260903130116 59 63 2.0 2.0 0.00 0.00 0.00 32 1015.3
20260903125619 59 57 0.0 2.0 0.00 0.00 0.00 33 1015.3
20260903125120 59 57 0.0 2.0 0.00 0.00 0.00 33 1015.2
20260903124628 59 72 1.0 2.0 0.00 0.00 0.00 33 1015.2
20260903124137 60 98 2.0 2.0 0.00 0.00 0.00 34 1015.1
20260903123619 60 131 1.0 1.0 0.00 0.00 0.00 32 1015.2
20260903123121 60 57 0.0 2.0 0.00 0.00 0.00 31 1015.2
20260903122623 60 75 1.0 2.0 0.00 0.00 0.00 32 1015.1
20260903122133 60 59 0.0 3.0 0.00 0.00 0.00 31 1015.1
20260903121614 60 75 1.0 3.0 0.00 0.00 0.00 33 1015.1
20260903121115 60 72 1.0 2.0 0.00 0.00 0.00 33 1015.1
20260903120623 61 70 1.0 4.0 0.00 0.00 0.00 33 1015.1
20260903120124 60 57 2.0 4.0 0.00 0.00 0.00 33 1015.1
20260903115631 61 65 1.0 2.0 0.00 0.00 0.00 32 1015.1
20260903115112 61 76 1.0 3.0 0.00 0.00 0.00 32 1015.0
20260903114614 61 62 0.0 3.0 0.00 0.00 0.00 31 1015.0
20260903114144 61 60 1.0 2.0 0.00 0.00 0.00 31 1015.0
20260903113624 61 53 0.0 2.0 0.00 0.00 0.00 32 1015.0
20260903113133 61 56 1.0 2.0 0.00 0.00 0.00 32 1015.0
20260903112615 61 53 0.0 2.0 0.00 0.00 0.00 33 1015.0
20260903112116 61 50 0.0 2.0 0.00 0.00 0.00 32 1015.0
20260903111625 61 59 1.0 3.0 0.00 0.00 0.00 34 1015.0
20260903111124 61 68 1.0 3.0 0.00 0.00 0.00 33 1015.0
20260903110634 61 49 2.0 3.0 0.00 0.00 0.00 33 1015.0
20260903110115 61 87 1.0 3.0 0.00 0.00 0.00 33 1015.0
20260903105613 61 65 1.0 3.0 0.00 0.00 0.00 34 1015.0
20260903105122 61 87 2.0 2.0 0.00 0.00 0.00 35 1015.0
20260903104623 61 60 1.0 1.0 0.00 0.00 0.00 35 1015.0
20260903104124 60 60 0.0 2.0 0.00 0.00 0.00 41 1015.0
20260903103633 60 60 1.0 2.0 0.00 0.00 0.00 43 1015.0
20260903103115 61 50 1.0 2.0 0.00 0.00 0.00 43 1015.0
20260903102618 62 301 0.0 1.0 0.00 0.00 0.00 39 1014.9
20260903102119 62 27 0.0 1.0 0.00 0.00 0.00 36 1014.8
20260903101628 62 57 0.0 1.0 0.00 0.00 0.00 35 1014.8
20260903101130 63 57 0.0 2.0 0.00 0.00 0.00 36 1014.8
20260903100640 64 57 0.0 2.0 0.00 0.00 0.00 30 1014.6
20260903100149 64 57 1.0 2.0 0.00 0.00 0.00 30 1014.6
20260903095629 63 63 0.0 2.0 0.00 0.00 0.00 30 1014.5
20260903095112 63 63 1.0 2.0 0.00 0.00 0.00 30 1014.6
20260903094614 63 43 0.0 1.0 0.00 0.00 0.00 32 1014.4
20260903094142 63 56 0.0 2.0 0.00 0.00 0.00 32 1014.5
20260903093623 63 73 0.0 2.0 0.00 0.00 0.00 33 1014.5
20260903093132 62 73 1.0 2.0 0.00 0.00 0.00 34 1014.4
20260903092614 62 58 1.0 2.0 0.00 0.00 0.00 37 1014.5
20260903092116 62 58 1.0 3.0 0.00 0.00 0.00 40 1014.5
20260903091625 62 84 1.0 3.0 0.00 0.00 0.00 40 1014.4
20260903091127 62 59 1.0 2.0 0.00 0.00 0.00 41 1014.4
20260903090629 62 70 1.0 2.0 0.00 0.00 0.00 42 1014.5
20260903090137 62 51 1.0 1.0 0.00 0.00 0.00 42 1014.5
20260903085625 62 22 0.0 1.0 0.00 0.00 0.00 41 1014.6
20260903085134 62 22 0.0 1.0 0.00 0.00 0.00 41 1014.5
20260903084635 62 22 0.0 1.0 0.00 0.00 0.00 40 1014.5
20260903084123 62 22 0.0 1.0 0.00 0.00 0.00 43 1014.6
20260903083625 63 22 0.0 1.0 0.00 0.00 0.00 42 1014.6
20260903083133 63 13 0.0 1.0 0.00 0.00 0.00 41 1014.6
20260903082614 63 13 0.0 1.0 0.00 0.00 0.00 40 1014.6
20260903082115 63 13 0.0 0.0 0.00 0.00 0.00 40 1014.7
20260903081617 63 13 0.0 1.0 0.00 0.00 0.00 41 1014.7
20260903081125 63 13 0.0 1.0 0.00 0.00 0.00 39 1014.6
20260903080626 63 13 0.0 1.0 0.00 0.00 0.00 37 1014.5
20260903080135 64 13 0.0 1.0 0.00 0.00 0.00 36 1014.5
20260903075616 64 311 0.0 2.0 0.00 0.00 0.00 38 1014.5
20260903075145 65 280 1.0 2.0 0.00 0.00 0.00 37 1014.4
20260903074626 65 69 0.0 1.0 0.00 0.00 0.00 36 1014.4
20260903074136 65 68 0.0 1.0 0.00 0.00 0.00 35 1014.3
20260903073618 66 68 0.0 2.0 0.00 0.00 0.00 35 1014.3
20260903073120 66 68 1.0 2.0 0.00 0.00 0.00 34 1014.1
20260903072622 66 89 0.0 1.0 0.00 0.00 0.00 35 1014.2
20260903072131 66 60 0.0 1.0 0.00 0.00 0.00 35 1014.1
20260903071613 66 60 0.0 1.0 0.00 0.00 0.00 34 1014.1
20260903071115 67 60 0.0 1.0 0.00 0.00 0.00 33 1014.0
20260903070622 67 60 0.0 1.0 0.00 0.00 0.00 31 1014.0
20260903070124 67 60 0.0 1.0 0.00 0.00 0.00 29 1014.0
20260903065635 67 60 0.0 1.0 0.00 0.00 0.00 30 1014.0
20260903065136 68 60 0.0 2.0 0.00 0.00 0.00 30 1014.1
20260903064617 68 53 0.0 2.0 0.00 0.00 0.00 29 1013.9
20260903064126 67 120 1.0 2.0 0.00 0.00 0.00 30 1013.9
20260903063628 68 91 0.0 1.0 0.00 0.00 0.00 30 1014.0
20260903063137 68 91 0.0 1.0 0.00 0.00 0.00 29 1013.8
20260903062635 68 91 0.0 1.0 0.00 0.00 0.00 30 1013.9
20260903062123 67 91 1.0 1.0 0.00 0.00 0.00 29 1013.8
20260903061625 68 91 0.0 1.0 0.00 0.00 0.00 30 1013.8
20260903061126 68 91 0.0 1.0 0.00 0.00 0.00 29 1013.6
20260903060635 69 91 0.0 3.0 0.00 0.00 0.00 29 1013.5
20260903060117 69 91 2.0 3.0 0.00 0.00 0.00 27 1013.5
20260903055646 69 103 0.0 2.0 0.00 0.00 0.00 27 1013.4
20260903055128 69 103 0.0 4.0 0.00 0.00 0.00 27 1013.4
20260903054635 69 98 2.0 4.0 0.00 0.00 0.00 28 1013.6
20260903054117 69 126 0.0 1.0 0.00 0.00 0.00 28 1013.7
20260903053619 69 126 0.0 1.0 0.00 0.00 0.00 29 1013.6
20260903053128 69 126 0.0 1.0 0.00 0.00 0.00 27 1013.7
20260903052630 69 126 0.0 1.0 0.00 0.00 0.00 28 1013.5
20260903052112 70 126 0.0 3.0 0.00 0.00 0.00 26 1013.5
20260903051614 70 129 2.0 3.0 0.00 0.00 0.00 25 1013.5
20260903051123 70 129 1.0 3.0 0.00 0.00 0.00 26 1013.6
20260903050625 70 101 0.0 4.0 0.00 0.00 0.00 27 1013.5
20260903050134 70 70 2.0 4.0 0.00 0.00 0.00 27 1013.7
20260903045616 70 153 0.0 2.0 0.00 0.00 0.00 26 1013.7
20260903045118 70 93 1.0 2.0 0.00 0.00 0.00 26 1013.5
20260903044620 71 64 1.0 4.0 0.00 0.00 0.00 26 1013.6
20260903044111 71 130 3.0 4.0 0.00 0.00 0.00 25 1013.7
20260903043613 71 212 0.0 4.0 0.00 0.00 0.00 24 1013.5
20260903043115 70 65 1.0 2.0 0.00 0.00 0.00 26 1013.6
20260903042624 70 149 1.0 1.0 0.00 0.00 0.00 24 1013.5
20260903042126 70 110 0.0 1.0 0.00 0.00 0.00 26 1013.5
20260903041612 71 110 0.0 3.0 0.00 0.00 0.00 26 1013.4
20260903041120 71 120 1.0 3.0 0.00 0.00 0.00 25 1013.3
20260903040617 71 94 1.0 4.0 0.00 0.00 0.00 25 1013.2
20260903040125 71 107 1.0 3.0 0.00 0.00 0.00 25 1013.1
20260903035611 71 136 2.0 3.0 0.00 0.00 0.00 25 1013.1
20260903035114 71 126 1.0 2.0 0.00 0.00 0.00 25 1013.0
20260903034622 72 101 0.0 2.0 0.00 0.00 0.00 25 1012.9
20260903034124 72 124 0.0 3.0 0.00 0.00 0.00 25 1012.8
20260903033626 72 106 2.0 3.0 0.00 0.00 0.00 25 1012.9
20260903033135 72 134 0.0 4.0 0.00 0.00 0.00 25 1012.9
20260903032616 73 144 1.0 4.0 0.00 0.00 0.00 24 1012.8
20260903032119 73 131 3.0 4.0 0.00 0.00 0.00 24 1012.7
20260903031627 73 124 0.0 2.0 0.00 0.00 0.00 25 1012.6
20260903031129 73 120 0.0 1.0 0.00 0.00 0.00 24 1012.6
20260903030611 73 120 0.0 4.0 0.00 0.00 0.00 24 1012.5
20260903030121 74 141 1.0 4.0 0.00 0.00 0.00 23 1012.6
20260903025623 74 123 1.0 2.0 0.00 0.00 0.00 22 1012.5
20260903025125 74 58 1.0 2.0 0.00 0.00 0.00 20 1012.3
20260903024634 74 96 1.0 2.0 0.00 0.00 0.00 23 1012.4
20260903024116 74 134 0.0 2.0 0.00 0.00 0.00 23 1012.3
20260903023618 74 124 1.0 2.0 0.00 0.00 0.00 24 1012.2
20260903023121 74 104 1.0 2.0 0.00 0.00 0.00 23 1012.2
20260903022630 74 43 1.0 2.0 0.00 0.00 0.00 23 1012.2
20260903022112 75 44 0.0 6.0 0.00 0.00 0.00 22 1012.1
20260903021614 76 315 1.0 6.0 0.00 0.00 0.00 21 1012.1
20260903021122 76 280 2.0 4.0 0.00 0.00 0.00 19 1012.0
20260903020644 77 184 0.0 4.0 0.00 0.00 0.00 17 1011.9
20260903020112 77 196 2.0 4.0 0.00 0.00 0.00 16 1011.9
20260903015614 78 167 2.0 4.0 0.00 0.00 0.00 16 1012.1
20260903015142 78 216 2.0 5.0 0.00 0.00 0.00 16 1012.1
20260903014623 78 150 1.0 5.0 0.00 0.00 0.00 15 1012.1
20260903014133 78 232 2.0 5.0 0.00 0.00 0.00 16 1012.2
20260903013613 79 184 2.0 4.0 0.00 0.00 0.00 15 1012.2
20260903013114 79 194 1.0 10.0 0.00 0.00 0.00 16 1012.3
20260903012623 79 233 1.0 10.0 0.00 0.00 0.00 16 1012.4
20260903012125 80 92 2.0 7.0 0.00 0.00 0.00 15 1012.4
20260903011654 80 140 2.0 13.0 0.00 0.00 0.00 14 1012.5
20260903011116 81 193 4.0 13.0 0.00 0.00 0.00 14 1012.4
20260903010618 81 150 2.0 6.0 0.00 0.00 0.00 14 1012.6
20260903010127 81 184 2.0 10.0 0.00 0.00 0.00 14 1012.6
20260903005629 81 105 3.0 10.0 0.00 0.00 0.00 14 1012.6
20260903005111 81 149 2.0 10.0 0.00 0.00 0.00 14 1012.7
20260903004620 81 311 4.0 11.0 0.00 0.00 0.00 14 1012.7
20260903004122 81 216 4.0 13.0 0.00 0.00 0.00 14 1012.7
20260903003624 81 143 4.0 11.0 0.00 0.00 0.00 16 1012.8
20260903003132 80 134 2.0 8.0 0.00 0.00 0.00 17 1012.8
20260903002615 80 198 1.0 8.0 0.00 0.00 0.00 18 1012.7
20260903002117 81 169 2.0 8.0 0.00 0.00 0.00 17 1012.7
20260903001624 81 143 3.0 12.0 0.00 0.00 0.00 17 1012.8
20260903001125 81 165 4.0 12.0 0.00 0.00 0.00 16 1012.7
20260903000654 81 257 3.0 7.0 0.00 0.00 0.00 17 1012.7
20260903000114 81 153 2.0 8.0 0.00 0.00 0.00 16 1012.7
20260902235616 81 354 4.0 9.0 0.00 0.00 0.00 16 1012.9
20260902235124 81 140 3.0 12.0 0.00 0.00 0.00 16 1012.9
20260902234654 81 155 5.0 19.0 0.00 0.00 0.00 16 1012.9
20260902234114 81 140 5.0 19.0 0.00 0.00 0.00 17 1013.0
20260902233614 81 79 3.0 14.0 0.00 0.00 0.00 18 1013.0
20260902233116 81 148 4.0 10.0 0.00 0.00 0.00 17 1013.0
20260902232645 81 11 3.0 14.0 0.00 0.00 0.00 17 1013.0
20260902232133 82 314 4.0 14.0 0.00 0.00 0.00 17 1013.2
20260902231615 82 176 2.0 7.0 0.00 0.00 0.00 17 1013.1
20260902231137 82 260 1.0 9.0 0.00 0.00 0.00 17 1013.0
20260902230625 82 302 3.0 12.0 0.00 0.00 0.00 17 1013.1
20260902230133 82 184 4.0 12.0 0.00 0.00 0.00 17 1013.1
20260902225614 82 231 4.0 12.0 0.00 0.00 0.00 19 1013.1
20260902225136 83 117 5.0 12.0 0.00 0.00 0.00 18 1012.9
20260902224644 83 252 3.0 8.0 0.00 0.00 0.00 18 1013.0
20260902224131 84 207 3.0 11.0 0.00 0.00 0.00 18 1013.1
20260902223614 83 221 3.0 11.0 0.00 0.00 0.00 18 1013.2
20260902223115 84 156 3.0 8.0 0.00 0.00 0.00 18 1013.2
20260902222618 83 287 2.0 11.0 0.00 0.00 0.00 19 1013.2
20260902222126 83 281 6.0 11.0 0.00 0.00 0.00 19 1013.2
20260902221655 83 177 2.0 8.0 0.00 0.00 0.00 19 1013.3
20260902221115 83 311 3.0 11.0 0.00 0.00 0.00 20 1013.4
20260902220615 83 226 4.0 11.0 0.00 0.00 0.00 19 1013.4
20260902220123 83 276 3.0 9.0 0.00 0.00 0.00 20 1013.5
20260902215625 84 191 2.0 10.0 0.00 0.00 0.00 19 1013.6
20260902215133 84 219 3.0 10.0 0.00 0.00 0.00 19 1013.5
20260902214636 84 247 4.0 10.0 0.00 0.00 0.00 19 1013.5
20260902214116 84 191 3.0 11.0 0.00 0.00 0.00 19 1013.7
20260902213624 84 204 4.0 11.0 0.00 0.00 0.00 18 1013.7
20260902213127 84 262 3.0 13.0 0.00 0.00 0.00 20 1013.7
20260902212636 85 158 6.0 13.0 0.00 0.00 0.00 20 1013.6
20260902212118 85 198 3.0 7.0 0.00 0.00 0.00 23 1013.7
20260902211620 85 58 3.0 7.0 0.00 0.00 0.00 22 1013.7
20260902211149 84 240 2.0 10.0 0.00 0.00 0.00 23 1013.7
20260902210630 84 258 4.0 16.0 0.00 0.00 0.00 21 1014.0
20260902210117 84 200 7.0 16.0 0.00 0.00 0.00 21 1014.0
20260902205619 84 282 7.0 11.0 0.00 0.00 0.00 21 1014.1
20260902205121 84 141 3.0 12.0 0.00 0.00 0.00 21 1014.1
20260902204629 84 63 4.0 13.0 0.00 0.00 0.00 23 1014.2
20260902204112 84 224 4.0 13.0 0.00 0.00 0.00 22 1014.2
20260902203614 84 206 4.0 13.0 0.00 0.00 0.00 23 1014.2
20260902203123 84 232 3.0 13.0 0.00 0.00 0.00 21 1014.2
20260902202625 84 239 4.0 11.0 0.00 0.00 0.00 20 1014.4
20260902202127 84 202 4.0 11.0 0.00 0.00 0.00 21 1014.3
20260902201635 84 110 4.0 15.0 0.00 0.00 0.00 21 1014.4
20260902201117 84 132 7.0 15.0 0.00 0.00 0.00 20 1014.5
20260902200620 83 160 4.0 14.0 0.00 0.00 0.00 20 1014.5
20260902200129 83 265 4.0 16.0 0.00 0.00 0.00 20 1014.5
20260902195611 83 207 4.0 16.0 0.00 0.00 0.00 23 1014.5
20260902195114 83 178 3.0 12.0 0.00 0.00 0.00 24 1014.6
20260902194621 82 204 6.0 12.0 0.00 0.00 0.00 23 1014.6
20260902194150 82 315 3.0 18.0 0.00 0.00 0.00 23 1014.7
20260902193651 82 118 8.0 18.0 0.00 0.00 0.00 24 1014.7
20260902193139 82 142 7.0 17.0 0.00 0.00 0.00 23 1014.7
20260902192620 82 205 6.0 15.0 0.00 0.00 0.00 25 1014.7
20260902192123 82 173 3.0 11.0 0.00 0.00 0.00 27 1014.9
20260902191632 81 213 2.0 16.0 0.00 0.00 0.00 27 1014.9
20260902191114 80 18 4.0 16.0 0.00 0.00 0.00 29 1015.1
20260902190615 80 165 7.0 15.0 0.00 0.00 0.00 28 1015.0
20260902190124 80 97 4.0 13.0 0.00 0.00 0.00 29 1015.2
20260902185653 80 193 4.0 13.0 0.00 0.00 0.00 30 1015.2
20260902185113 79 259 4.0 17.0 0.00 0.00 0.00 30 1015.2
20260902184614 79 158 5.0 17.0 0.00 0.00 0.00 29 1015.3
20260902184117 78 345 5.0 13.0 0.00 0.00 0.00 29 1015.2